Location: Sungai Igah
(2.7333°N, 114.2500°E)
Time: 03:26:27
(UTC+00:00)

NOSS 3-4 (C) - Pass Details

Date: 14 June 2021
Orbit: 868 x 1344 km, 63.4° (Epoch: 31 July)

Event Time Altitude Azimuth Distance (km) Brightness Sun altitude
Exits shadow 20:57:24 31° 256° (WSW) 1,502 3.9 -18.5°
Maximum altitude 20:59:12 38° 293° (WNW) 1,301 3.8 -18.1°
Drops below altitude 10° 21:04:28 10° 1° (N) 2,503 6.0 -16.9°
Sets 21:07:07 0° 9° (N) 3,453 6.9 -16.3°
